Weather History for KLMT - February, 2014

Change the Weather History Date:

Saturday, February 15, 2014

  Actual Average Record
Temperature  
Mean Temperature 44 °F 34 °F  
Max Temperature 53 °F 45 °F 62 °F (1977)
Min Temperature 35 °F 24 °F 2 °F (1989)
Degree Days  
Heating Degree Days 21 31  
Month to date heating degree days 437 480  
Since 1 July heating degree days 4455 4460  
Cooling Degree Days 0 0  
Month to date cooling degree days 0 0  
Year to date cooling degree days 0 0  
Moisture  
Dew Point 38 °F    
Average Humidity 82    
Maximum Humidity 100    
Minimum Humidity 52    
Precipitation  
Precipitation 0.19 in 0.07 in 0.75 in (1986)
Month to date precipitation 2.01 1.03  
Year to date precipitation 2.32 2.88  
Sea Level Pressure  
Sea Level Pressure 29.79 in    
Wind  
Wind Speed 17 mph (South)    
Max Wind Speed 41 mph    
Max Gust Speed 49 mph    
Visibility 10 miles    
Events Rain    
T = Trace of Precipitation, MM = Missing Value Source: NWS Daily Summary

Daily Weather History Graph

Daily Weather History Graph

Search for Another Location

Airport or City:

Trip Planner

Search our weather history database for the weather conditions in past years. The results will help you decide how hot, cold, wet, or windy it might be!

Date:

Astronomy

Feb. 15, 2014 Rise Set
Actual Time 7:02 AM PST 5:39 PM PST
Civil Twilight 6:34 AM PST 6:08 PM PST
Nautical Twilight 6:01 AM PST 6:41 PM PST
Astronomical Twilight 5:29 AM PST 7:13 PM PST
Moon 6:46 PM PST (2/15) 7:02 AM PST (2/15)
Length of Visible Light 11h 34m
Length of Day
10h 36m
Full, 99% of the Moon is Illuminated
Feb 15
Full
Feb 22
Last Quarter
Mar 1
New
Mar 8
First Quarter
Mar 16
Full

Hourly Weather History & Observations

Time (PST) Temp. Windchill Dew Point Humidity Pressure Visibility Wind Dir Wind Speed Gust Speed Precip Events Conditions
12:11 AM 39.9 °F 33.9 °F 39.9 °F 100% 29.96 in 10.0 mi SSE 9.2 mph - 0.00 in Rain Light Rain
12:53 AM 39.9 °F 35.8 °F 39.9 °F 100% 29.92 in 10.0 mi SE 5.8 mph - 0.00 in   Overcast
1:11 AM 39.9 °F 35.8 °F 39.9 °F 100% 29.94 in 10.0 mi SE 5.8 mph - N/A   Overcast
1:28 AM 39.9 °F 34.5 °F 39.9 °F 100% 29.93 in 10.0 mi SE 8.1 mph - N/A   Overcast
1:53 AM 39.9 °F 36.7 °F 39.9 °F 100% 29.90 in 10.0 mi ENE 4.6 mph - N/A   Overcast
2:53 AM 39.9 °F - 39.9 °F 100% 29.88 in 10.0 mi Calm Calm - N/A   Overcast
3:53 AM 39.9 °F 37.8 °F 39.9 °F 100% 29.86 in 10.0 mi NNW 3.5 mph - N/A   Mostly Cloudy
4:04 AM 39.0 °F - 39.0 °F 100% 29.86 in 9.0 mi Calm Calm - N/A   Scattered Clouds
4:53 AM 43.0 °F 38.2 °F 43.0 °F 100% 29.87 in 10.0 mi SSW 8.1 mph - N/A   Clear
5:53 AM 45.0 °F - 43.0 °F 93% 29.83 in 10.0 mi Calm Calm - N/A   Partly Cloudy
6:53 AM 46.0 °F 40.6 °F 41.0 °F 83% 29.82 in 10.0 mi SSE 11.5 mph - N/A   Overcast
7:53 AM 46.9 °F - 41.0 °F 80% 29.78 in 10.0 mi SSE 20.7 mph - N/A   Clear
8:53 AM 48.0 °F - 41.0 °F 77% 29.78 in 10.0 mi SSE 23.0 mph 34.5 mph N/A   Overcast
9:53 AM 50.0 °F - 41.0 °F 71% 29.77 in 10.0 mi South 21.9 mph 33.4 mph N/A   Mostly Cloudy
10:53 AM 51.1 °F - 39.0 °F 63% 29.76 in 10.0 mi South 23.0 mph 32.2 mph N/A   Mostly Cloudy
11:53 AM 51.1 °F - 37.9 °F 61% 29.71 in 10.0 mi South 28.8 mph 39.1 mph N/A   Mostly Cloudy
12:53 PM 52.0 °F - 37.0 °F 57% 29.70 in 10.0 mi South 29.9 mph 38.0 mph N/A   Mostly Cloudy
1:53 PM 50.0 °F - 34.0 °F 54% 29.71 in 10.0 mi South 32.2 mph 42.6 mph N/A   Overcast
2:53 PM 48.9 °F - 34.0 °F 56% 29.70 in 10.0 mi South 25.3 mph 33.4 mph 0.00 in   Overcast
3:53 PM 48.0 °F - 37.0 °F 66% 29.67 in 10.0 mi South 25.3 mph 39.1 mph 0.00 in   Overcast
4:53 PM 46.0 °F 37.2 °F 35.1 °F 66% 29.65 in 10.0 mi South 26.5 mph 43.7 mph 0.00 in   Overcast
5:53 PM 45.0 °F 35.6 °F 35.1 °F 68% 29.64 in 10.0 mi South 27.6 mph 36.8 mph 0.00 in   Overcast
6:53 PM 43.0 °F 33.3 °F 37.0 °F 80% 29.66 in 10.0 mi South 25.3 mph 34.5 mph 0.02 in Rain Light Rain
7:30 PM 42.1 °F 34.2 °F 37.9 °F 85% 29.71 in 6.0 mi South 16.1 mph - 0.06 in Rain Rain
7:53 PM 42.1 °F 33.9 °F 37.9 °F 85% 29.68 in 9.0 mi SSW 17.3 mph 25.3 mph 0.10 in Rain Light Rain
8:24 PM 42.1 °F 33.3 °F 37.0 °F 82% 29.74 in 8.0 mi West 19.6 mph 25.3 mph 0.04 in Rain Rain
8:53 PM 41.0 °F 31.9 °F 37.0 °F 86% 29.73 in 10.0 mi West 19.6 mph 27.6 mph 0.05 in Rain Light Rain
9:53 PM 37.9 °F 30.0 °F 34.0 °F 86% 29.77 in 10.0 mi WNW 12.7 mph - 0.02 in Rain Light Rain
10:43 PM 37.0 °F 28.5 °F 32.0 °F 82% 29.81 in 10.0 mi West 13.8 mph 23.0 mph 0.00 in   Scattered Clouds
10:53 PM 37.0 °F 28.5 °F 30.9 °F 79% 29.79 in 10.0 mi West 13.8 mph - 0.00 in   Clear
11:53 PM 35.1 °F 27.9 °F 28.0 °F 76% 29.83 in 10.0 mi West 9.2 mph - N/A   Partly Cloudy